Location: Newark
(40.2401°N, 1.4098°W)
Time: 21:09:09
(UTC+00:00)

N. Korean satellite - Pass Details

Date: 28 October 2019
Orbit: 456 x 506 km, 97.2° (Epoch: 16 November)

Event Time Altitude Azimuth Distance (km) Brightness Sun altitude
Rises 18:15:23 0° 211° (SSW) 2,469 10.7 -13.4°
Reaches altitude 10° 18:18:24 10° 241° (WSW) 1,610 10.3 -14.0°
Maximum altitude 18:19:58 13° 268° (W) 1,465 10.3 -14.3°
Drops below altitude 10° 18:21:32 10° 295° (WNW) 1,625 10.2 -14.6°
Sets 18:24:38 0° 326° (NW) 2,521 10.6 -15.1°
